AirNav   Air Wisconsin pilot careers
 
 694 users online  

SC75 Oolenoy Valley Airport
Pickens, South Carolina, USA

GOING TO PICKENS?


FAA INFORMATION EFFECTIVE 09 NOVEMBER 2017

Location

FAA Identifier: SC75
Lat/Long: 34-59-53.4290N / 082-44-05.4790W
34-59.890483N / 082-44.091317W
34.9981747 / -82.7348553
(estimated)
Elevation: 1000 ft. / 305 m (estimated)
Variation: 04W (1990)
From city: 8 miles N of PICKENS, SC
Time zone: UTC -5 (UTC -4 during Daylight Saving Time)
Zip code: 29671

Airport Operations

Airport use: Private use. Permission required prior to landing
Activation date: 04/1992
Control tower: no
ARTCC: ATLANTA CENTER
FSS: ANDERSON FLIGHT SERVICE STATION
Attendance: UNATNDD
Wind indicator: yes
Segmented circle: no

Airport Communications

WX AWOS-3 at LQK (11 nm S): 120.0 (864-843-5801)

Nearby radio navigation aids

VOR radial/distance  VOR name  Freq  Var
ODFr057/33.1FOOTHILLS VORTAC113.4000E
SUGr225/33.5SUGARLOAF MOUNTAIN VORTAC112.2002W
ELWr004/34.8ELECTRIC CITY VORTAC108.6000E
SPAr269/39.8SPARTANBURG VORTAC115.7002W

 
NDB name  Hdg/Dist  Freq  Var  ID
LAKE KEOWEE356/11.340804WLQK .-.. --.- -.-
CLEMSON026/20.925705WCEU -.-. . ..-
BROAD RIVER225/21.037907WBRA -... .-. .-
FAIRMONT284/37.324805WFRT ..-. .-. -

Airport Services

Runway Information

Runway 10/28

Dimensions: 1800 x 50 ft. / 549 x 15 m
Surface: turf
RUNWAY 10  RUNWAY 28
Traffic pattern: leftleft
Obstructions: 70 ft. trees, 200 ft. from runway50 ft. trees

Airport Ownership and Management from official FAA records

Ownership: Privately-owned
Owner: CLARENCE E. SHEHAN
260 DUCKPOND LANE
PICKENS, SC 29671
Phone 864-270-9665
/DAVID W. ABBOTT.
Manager: CLARENCE E. SHEHAN
260 DUCKPOND LANE
PICKENS, SC 29671
Phone 864-270-9665

Instrument Procedures

There are no published instrument procedures at SC75.

Some nearby airports with instrument procedures:

KLQK - Pickens County Airport (11 nm S)
KCEU - Oconee County Regional Airport (21 nm S)
KGMU - Greenville Downtown Airport (21 nm SE)
KGYH - Donaldson Field Airport (23 nm SE)
KGSP - Greenville Spartanburg International Airport (26 nm E)
 
Loc | Ops | Rwys | IFR | FBO | Links
Com | Nav | Svcs | Stats | Notes


 
Area around SC75 (Oolenoy Valley Airport)
 
Road maps at: MapQuest Bing Google
 
Aerial photo
WARNING: Photo may not be current or correct
Aerial photo of SC75 (Oolenoy Valley Airport)
Photo taken 14-Jan-2009

Do you have a better or more recent aerial photo of Oolenoy Valley Airport that you would like to share? If so, please send us your photo.

 
Sectional chart

 
Airport distance calculator
Flying to Oolenoy Valley Airport? Find the distance to fly.

From to SC75

Sunrise and sunset
Times for 20-Nov-2017
 Local
(UTC-5)
 Zulu
(UTC)
Morning civil twilight06:4411:44
Sunrise07:1112:11
Sunset17:2222:22
Evening civil twilight17:4922:49

Current date and time
Zulu (UTC)  21-Nov-2017 04:35:18
Local (UTC-5)  20-Nov-2017 23:35:18
 
METAR
KLQK 
11nm S 
210415Z AUTO 00000KT 10SM CLR 01/01 A3022 RMK AO2 T00110006
KGMU 
21nm SE 
210353Z AUTO 00000KT 10SM CLR 07/01 A3023 RMK AO2 SLP239 T00670006
KCEU 
21nm S 
210354Z AUTO 36003KT 10SM CLR 05/04 A3023 RMK AO2 SLP239 T00500039
KGYH 
23nm SE 
210147Z 00000KT 10SM SKC 08/M01 A3023 RMK LAST
TAF
KGMU 
21nm SE 
201728Z 2018/2118 20004KT P6SM SKC FM211100 VRB02KT P6SM BKN035 FM211200 VRB02KT P6SM BKN025 PROB30 2115/2118 4SM -SHRA OVC015
NOTAMs
Click for the latest NOTAMs
NOTAMs are issued by the DoD/FAA and will open in a separate window not controlled by AirNav.

 

 
 

Would you like to see your business listed on this page?

 If your business provides an interesting product or service to pilots, flight crews, aircraft, or users of the Oolenoy Valley Airport, you should consider listing it here.  To start the listing process, click on the button below
 
Add a business
 

Other Pages about Oolenoy Valley Airport

Update a link
 
Copyright © AirNav, LLC. All rights reserved. Privacy Policy  Contact